カタログに戻る

STARLINK-32138

運用中通信VLEO
NORAD 60255·PAYLOAD·🇺🇸 United States

打ち上げ Jul 27, 2024 から Cape Canaveral Space Force Station

Loading…

次のパス (今後24時間)

TLE

最新Source: CelesTrak SupGP

元期: Sep 14, 2026, 20:46 UTC

1 60255C 24131A   26257.86576389  .00052676  00000+0  16940-2 0  2577
2 60255  53.1563 252.3912 0001290  99.3256 172.8891 15.31674588    18

AllMySatでSTARLINK-32138をリアルタイム追跡

Download on the App Store